Temp
-18 -18 -18 -18 -18 -18 -19 -20 -20 -20 -19 -17 -17 -16 -16 -15 -14 -13 -12 -11 -11 -11 -11 -11 -11 -11 -11 -11 -11 -11 -10 -10 -10 -10 -10 -10 -10 -10 -10 -9 -9 -9 -9 -9 -9
-17 -18 -17 -18 -18 -19 -19 -20 -21 -20 -20 -19 -18 -17 -16 -16 -15 -13 -12 -12 -12 -11 -11 -11 -11 -11 -12 -11 -11 -11 -11 -10 -10 -10 -10 -10 -10 -10 -10 -10 -10 -10 -9 -9 -9
-18 -18 -18 -18 -19 -19 -20 -20 -20 -20 -21 -20 -18 -17 -17 -16 -15 -14 -13 -12 -12 -12 -12 -11 -11 -11 -12 -11 -11 -11 -11 -11 -10 -10 -10 -10 -10 -10 -10 -10 -10 -10 -10 -9 -9
-18 -18 -18 -18 -19 -19 -20 -20 -20 -20 -20 -19 -17 -17 -17 -17 -16 -15 -14 -13 -12 -12 -12 -11 -12 -12 -12 -11 -11 -11 -11 -10 -10 -10 -10 -10 -10 -10 -10 -10 -10 -10 -10 -10 -10
-19 -19 -19 -19 -19 -20 -20 -20 -20 -19 -19 -18 -18 -17 -17 -17 -16 -15 -15 -14 -13 -13 -12 -12 -12 -12 -12 -11 -11 -11 -10 -10 -10 -10 -10 -10 -11 -11 -11 -10 -10 -10 -10 -10 -10
-19 -18 -19 -19 -20 -20 -20 -20 -19 -19 -19 -18 -17 -17 -18 -16 -16 -16 -15 -14 -14 -13 -13 -12 -12 -12 -12 -11 -11 -11 -11 -10 -10 -10 -11 -11 -11 -11 -11 -11 -10 -10 -10 -10 -10
-19 -18 -19 -19 -19 -20 -20 -20 -19 -19 -18 -18 -19 -18 -17 -16 -17 -16 -16 -15 -14 -14 -13 -13 -12 -12 -12 -11 -11 -11 -11 -10 -10 -10 -11 -11 -11 -11 -11 -11 -10 -10 -10 -10 -10
-19 -19 -19 -19 -19 -19 -19 -19 -20 -19 -19 -19 -18 -17 -16 -17 -18 -17 -16 -15 -15 -14 -13 -13 -12 -12 -12 -12 -11 -11 -11 -10 -10 -10 -11 -11 -11 -11 -11 -11 -10 -10 -10 -10 -10
-20 -19 -19 -19 -19 -19 -19 -19 -19 -19 -19 -19 -17 -17 -17 -18 -18 -17 -16 -15 -15 -14 -13 -13 -12 -12 -12 -12 -11 -11 -11 -11 -11 -11 -11 -11 -11 -11 -11 -11 -10 -10 -10 -10 -10
-19 -20 -19 -19 -19 -19 -19 -18 -18 -18 -18 -18 -18 -17 -18 -18 -18 -17 -16 -16 -15 -14 -13 -13 -12 -12 -12 -12 -11 -11 -11 -11 -11 -11 -11 -11 -11 -11 -11 -11 -10 -10 -10 -10 -10
-19 -19 -19 -19 -19 -19 -18 -18 -18 -18 -18 -18 -18 -18 -18 -18 -17 -17 -16 -15 -15 -14 -13 -13 -12 -12 -12 -12 -12 -12 -11 -11 -11 -11 -11 -11 -11 -11 -10 -10 -10 -10 -10 -10 -10
-18 -18 -18 -18 -18 -19 -19 -18 -18 -18 -18 -19 -19 -18 -18 -17 -17 -16 -16 -15 -14 -14 -13 -13 -12 -12 -12 -12 -12 -12 -12 -11 -11 -11 -11 -11 -11 -11 -11 -11 -10 -10 -10 -10 -11
-18 -18 -18 -18 -18 -18 -18 -19 -19 -19 -19 -18 -19 -18 -18 -18 -17 -16 -15 -15 -14 -13 -13 -13 -12 -12 -12 -12 -12 -12 -12 -12 -11 -11 -11 -11 -11 -11 -11 -11 -11 -11 -11 -11 -11
-18 -18 -18 -18 -19 -18 -18 -18 -18 -18 -18 -18 -18 -18 -18 -18 -17 -16 -15 -14 -13 -13 -13 -13 -12 -12 -12 -12 -12 -12 -12 -12 -11 -11 -11 -11 -10 -11 -11 -11 -11 -11 -11 -11 -11
-18 -18 -18 -19 -19 -18 -18 -18 -18 -18 -18 -18 -18 -18 -18 -17 -17 -15 -15 -14 -13 -13 -13 -12 -12 -12 -12 -12 -12 -12 -11 -11 -11 -11 -11 -11 -11 -10 -11 -11 -11 -11 -12 -12 -12
-17 -17 -17 -17 -18 -18 -18 -18 -17 -18 -18 -18 -18 -18 -17 -17 -16 -15 -14 -14 -13 -13 -13 -12 -12 -12 -12 -12 -12 -12 -12 -11 -11 -11 -11 -11 -11 -11 -12 -12 -12 -12 -12 -12 -13
-16 -16 -17 -16 -16 -17 -17 -17 -17 -17 -16 -17 -17 -16 -17 -15 -16 -14 -14 -13 -13 -13 -12 -12 -12 -12 -12 -12 -12 -12 -12 -12 -11 -12 -11 -12 -12 -12 -12 -12 -12 -12 -12 -13 -13
-15 -15 -16 -16 -16 -16 -16 -16 -16 -16 -16 -16 -16 -15 -15 -15 -15 -14 -14 -13 -13 -12 -12 -12 -12 -12 -12 -12 -12 -12 -12 -12 -12 -12 -12 -12 -12 -12 -12 -13 -13 -13 -13 -13 -13
-15 -15 -15 -15 -15 -15 -15 -15 -16 -16 -16 -15 -15 -15 -15 -15 -14 -14 -13 -13 -13 -13 -12 -12 -12 -13 -13 -13 -13 -13 -13 -13 -13 -12 -12 -12 -12 -13 -13 -13 -13 -14 -14 -14 -14
-15 -15 -14 -15 -15 -15 -15 -15 -15 -15 -15 -15 -15 -15 -15 -14 -14 -14 -14 -14 -13 -13 -13 -13 -13 -13 -13 -13 -13 -13 -13 -13 -13 -13 -12 -12 -12 -13 -13 -14 -14 -14 -14 -14 -14
-14 -15 -15 -14 -14 -14 -14 -14 -14 -14 -14 -14 -14 -14 -14 -14 -14 -14 -14 -14 -14 -13 -13 -13 -13 -13 -13 -13 -13 -13 -13 -13 -13 -13 -13 -13 -13 -13 -14 -14 -14 -14 -14 -14 -14
-14 -14 -14 -14 -14 -14 -14 -14 -14 -14 -14 -14 -14 -14 -14 -14 -14 -14 -13 -13 -13 -13 -13 -13 -13 -13 -13 -13 -13 -13 -13 -13 -13 -13 -13 -13 -13 -14 -14 -14 -14 -14 -13 -13 -14
-14 -14 -14 -14 -14 -14 -14 -14 -14 -14 -13 -13 -13 -13 -13 -14 -13 -13 -13 -13 -13 -13 -13 -13 -13 -13 -13 -13 -13 -13 -13 -13 -14 -14 -13 -14 -13 -14 -14 -14 -13 -13 -14 -14 -14
-14 -14 -14 -14 -14 -13 -13 -13 -13 -13 -13 -13 -13 -13 -13 -13 -13 -13 -13 -13 -13 -13 -13 -13 -13 -13 -13 -13 -13 -14 -14 -14 -14 -14 -14 -13 -14 -14 -14 -14 -14 -14 -14 -14 -14
-14 -13 -13 -13 -13 -13 -13 -13 -13 -13 -13 -13 -13 -13 -13 -13 -13 -13 -13 -13 -13 -13 -13 -13 -13 -13 -13 -13 -13 -13 -14 -14 -14 -14 -14 -14 -14 -14 -14 -14 -14 -14 -15 -15 -15
-13 -13 -13 -14 -13 -13 -13 -13 -13 -13 -13 -13 -13 -13 -13 -13 -13 -13 -13 -13 -13 -13 -13 -13 -13 -13 -14 -14 -14 -13 -14 -14 -14 -14 -14 -15 -14 -14 -15 -15 -15 -15 -15 -15 -16
-13 -13 -13 -13 -13 -13 -13 -13 -14 -14 -14 -13 -13 -13 -13 -13 -13 -13 -13 -13 -14 -14 -14 -14 -14 -14 -14 -14 -14 -14 -14 -14 -14 -14 -15 -15 -15 -15 -15 -15 -16 -16 -16 -16 -16
Height
5659 5655 5652 5649 5646 5643 5638 5630 5632 5636 5648 5664 5680 5692 5703 5717 5730 5744 5759 5772 5784 5795 5806 5815 5822 5830 5837 5843 5848 5854 5858 5862 5865 5866 5868 5870 5871 5872 5874 5875 5876 5876 5876 5876 5876
5657 5651 5646 5642 5639 5637 5633 5630 5628 5632 5641 5655 5673 5686 5696 5709 5722 5735 5751 5765 5779 5791 5802 5811 5818 5826 5833 5839 5844 5850 5854 5858 5861 5862 5865 5866 5867 5869 5871 5872 5872 5873 5874 5873 5872
5654 5647 5641 5636 5634 5632 5632 5630 5630 5634 5639 5650 5671 5685 5688 5703 5716 5729 5744 5759 5773 5785 5797 5806 5813 5820 5828 5834 5841 5846 5851 5853 5856 5858 5860 5862 5864 5865 5867 5869 5869 5870 5871 5870 5870
5652 5645 5639 5632 5632 5630 5630 5631 5633 5636 5644 5655 5671 5673 5682 5697 5711 5725 5739 5753 5767 5780 5792 5803 5811 5817 5825 5830 5837 5843 5846 5849 5852 5855 5856 5858 5860 5862 5864 5865 5866 5867 5867 5866 5866
5653 5644 5638 5632 5631 5631 5631 5633 5637 5643 5651 5664 5671 5672 5682 5697 5708 5722 5736 5749 5763 5777 5789 5799 5808 5815 5821 5828 5834 5838 5842 5845 5848 5851 5853 5855 5857 5859 5861 5862 5863 5863 5862 5862 5861
5654 5645 5638 5636 5634 5634 5634 5637 5641 5648 5653 5661 5666 5672 5685 5695 5707 5720 5733 5747 5760 5774 5786 5795 5804 5811 5818 5824 5830 5835 5838 5841 5844 5848 5850 5852 5854 5856 5858 5859 5859 5859 5858 5858 5856
5656 5649 5643 5640 5639 5638 5640 5644 5647 5654 5657 5664 5669 5676 5688 5698 5707 5719 5733 5747 5759 5772 5783 5793 5801 5809 5815 5820 5826 5831 5835 5838 5841 5844 5847 5849 5851 5853 5854 5855 5855 5855 5855 5853 5851
5662 5655 5651 5648 5646 5646 5648 5651 5656 5663 5668 5673 5677 5683 5693 5700 5710 5721 5734 5747 5758 5770 5781 5790 5799 5807 5812 5819 5824 5828 5832 5836 5839 5841 5844 5846 5848 5849 5851 5851 5851 5851 5849 5847 5845
5668 5663 5659 5655 5655 5655 5655 5660 5665 5669 5674 5679 5684 5690 5696 5705 5714 5725 5736 5748 5759 5769 5780 5789 5797 5804 5811 5817 5821 5825 5830 5833 5836 5838 5840 5842 5844 5845 5846 5847 5846 5845 5843 5841 5838
5677 5672 5668 5664 5662 5663 5664 5666 5671 5676 5680 5685 5690 5698 5702 5710 5720 5729 5739 5750 5761 5770 5780 5789 5797 5804 5809 5815 5820 5823 5827 5830 5832 5836 5837 5839 5839 5840 5841 5841 5840 5839 5837 5834 5831
5687 5682 5678 5675 5672 5671 5672 5674 5678 5681 5685 5690 5695 5702 5709 5717 5726 5734 5743 5753 5763 5773 5782 5789 5797 5803 5808 5814 5818 5821 5824 5827 5829 5832 5833 5834 5835 5834 5836 5836 5835 5833 5831 5828 5825
5696 5691 5687 5685 5684 5682 5682 5683 5683 5687 5688 5695 5702 5708 5715 5723 5731 5739 5747 5757 5765 5774 5781 5790 5797 5803 5808 5812 5816 5819 5821 5824 5827 5828 5830 5830 5831 5830 5829 5828 5827 5826 5823 5820 5817
5705 5701 5697 5693 5692 5691 5692 5693 5694 5696 5699 5703 5708 5715 5722 5729 5737 5744 5752 5760 5767 5775 5783 5790 5798 5802 5807 5811 5815 5817 5819 5821 5823 5824 5825 5826 5826 5825 5824 5822 5821 5818 5816 5813 5809
5713 5710 5707 5703 5702 5700 5701 5701 5703 5705 5708 5713 5717 5722 5729 5736 5742 5749 5756 5764 5771 5778 5784 5791 5797 5802 5806 5810 5813 5815 5817 5818 5819 5820 5820 5820 5819 5821 5818 5816 5813 5810 5808 5805 5801
5721 5718 5716 5713 5711 5709 5711 5710 5709 5712 5716 5720 5725 5731 5737 5743 5750 5755 5759 5766 5773 5779 5787 5793 5796 5801 5805 5808 5810 5812 5813 5814 5815 5815 5814 5815 5812 5812 5810 5808 5805 5802 5799 5796 5792
5728 5725 5723 5722 5720 5719 5719 5717 5718 5721 5723 5727 5732 5737 5743 5749 5754 5759 5763 5769 5775 5781 5786 5791 5796 5799 5802 5805 5807 5808 5809 5809 5810 5809 5808 5808 5806 5805 5802 5799 5795 5793 5790 5787 5784
5734 5731 5729 5728 5728 5726 5727 5727 5728 5726 5731 5735 5739 5744 5748 5753 5757 5761 5766 5771 5776 5782 5786 5790 5794 5797 5799 5801 5803 5804 5804 5804 5804 5802 5802 5800 5798 5799 5793 5790 5787 5784 5781 5779 5776
5738 5737 5735 5735 5733 5733 5733 5734 5736 5737 5739 5740 5745 5748 5752 5755 5760 5764 5768 5772 5777 5781 5785 5788 5792 5793 5795 5797 5798 5797 5798 5798 5795 5796 5795 5793 5791 5790 5786 5782 5780 5777 5774 5772 5770
5741 5741 5740 5740 5739 5738 5739 5740 5742 5743 5745 5748 5750 5753 5756 5759 5763 5766 5769 5773 5777 5780 5784 5785 5788 5790 5791 5792 5793 5793 5793 5792 5790 5788 5786 5786 5786 5782 5778 5775 5771 5769 5768 5766 5764
5744 5743 5743 5743 5743 5743 5744 5744 5746 5748 5750 5753 5755 5757 5759 5762 5766 5768 5771 5773 5776 5778 5780 5783 5784 5786 5786 5787 5788 5787 5787 5786 5783 5781 5779 5779 5777 5774 5771 5768 5766 5764 5763 5761 5759
5748 5746 5744 5744 5745 5747 5747 5748 5749 5750 5752 5755 5757 5760 5763 5765 5767 5770 5772 5774 5775 5777 5778 5779 5781 5783 5782 5782 5781 5781 5780 5778 5776 5775 5772 5771 5771 5767 5764 5762 5759 5757 5756 5754 5752
5753 5752 5750 5748 5748 5748 5749 5750 5751 5753 5754 5756 5758 5760 5762 5764 5766 5768 5770 5771 5773 5774 5775 5775 5776 5777 5777 5776 5775 5774 5772 5770 5768 5768 5765 5763 5766 5760 5756 5753 5750 5748 5747 5745 5744
5756 5755 5754 5753 5752 5751 5751 5752 5752 5753 5755 5756 5758 5760 5762 5763 5765 5766 5767 5768 5769 5769 5770 5770 5770 5770 5770 5770 5768 5766 5764 5762 5760 5758 5758 5755 5755 5751 5746 5743 5740 5738 5737 5736 5733
5760 5758 5756 5755 5754 5754 5753 5753 5754 5754 5755 5755 5756 5757 5759 5760 5761 5762 5763 5764 5764 5764 5764 5764 5764 5763 5763 5761 5761 5759 5757 5755 5753 5752 5749 5749 5748 5745 5735 5733 5731 5729 5726 5723 5720
5764 5761 5760 5758 5757 5756 5756 5755 5755 5755 5755 5755 5756 5757 5758 5758 5758 5759 5759 5759 5760 5760 5759 5759 5758 5757 5755 5753 5753 5752 5750 5747 5745 5742 5737 5742 5733 5736 5726 5724 5719 5716 5712 5710 5707
5764 5763 5762 5761 5760 5758 5758 5757 5756 5755 5754 5755 5755 5755 5755 5756 5756 5756 5756 5756 5756 5755 5754 5753 5752 5751 5749 5746 5745 5743 5742 5737 5734 5732 5727 5724 5724 5717 5718 5713 5709 5704 5701 5697 5693
5763 5762 5761 5762 5760 5759 5758 5757 5757 5756 5756 5756 5755 5754 5753 5753 5752 5751 5750 5749 5749 5748 5747 5746 5744 5742 5741 5739 5735 5736 5734 5729 5726 5722 5718 5715 5711 5709 5705 5700 5697 5694 5690 5686 5682
Wind_Speed
7 9 8 18 18 21 22 23 33 44 57 63 61 58 58 56 65 68 74 71 68 63 59 55 52 50 45 43 39 32 32 29 28 27 22 22 23 22 20 19 18 17 18 18 18
10 9 8 9 9 11 5 6 14 22 30 49 59 57 54 47 61 65 73 70 68 63 59 54 51 48 45 42 40 35 34 31 28 27 26 25 24 23 22 21 20 19 18 19 20
16 14 9 7 5 5 6 8 11 23 31 42 45 45 50 52 57 60 69 69 68 64 58 54 50 47 45 42 40 36 33 29 28 29 27 27 27 25 24 22 21 21 20 22 23
17 16 11 7 2 4 5 13 15 25 35 48 43 35 38 51 52 54 64 67 67 63 58 53 47 44 43 40 39 34 31 30 29 29 29 30 29 27 24 22 22 23 23 24 24
18 16 15 7 9 8 7 13 19 32 49 38 34 28 45 38 41 52 59 63 63 60 56 51 46 42 42 36 34 31 30 29 29 29 29 30 30 27 25 25 25 25 25 25 26
25 25 15 15 7 6 11 17 32 46 27 19 22 33 36 33 36 47 55 57 57 56 54 50 45 43 40 35 31 30 30 29 28 28 28 29 28 28 26 26 25 25 25 26 27
30 27 17 17 11 13 14 17 43 32 18 23 35 41 32 31 39 46 50 50 51 51 51 47 44 41 38 33 31 31 29 28 27 26 26 27 27 26 26 25 25 25 25 26 27
33 28 29 16 12 14 17 15 33 18 19 28 26 32 31 31 41 43 46 47 47 47 47 45 42 40 36 31 31 30 28 27 25 24 24 26 25 25 24 24 23 24 25 26 28
35 32 31 26 13 22 18 26 25 23 17 16 23 25 31 37 42 45 46 45 44 44 44 43 41 38 35 31 30 29 27 25 24 23 23 24 23 24 23 22 24 24 26 28 30
32 32 31 26 25 20 20 19 23 23 16 21 22 25 33 40 43 45 44 43 41 41 42 41 39 35 32 30 28 26 24 23 22 22 22 22 22 23 23 22 24 25 28 30 31
31 29 30 28 27 19 18 19 20 16 16 20 26 29 36 41 41 40 42 41 39 39 39 38 35 33 29 28 26 25 23 22 22 21 22 22 21 24 23 23 24 26 28 30 34
36 37 34 29 25 24 24 19 20 19 28 27 32 34 38 39 38 40 39 38 38 38 37 33 31 29 26 26 25 23 22 21 21 21 21 21 21 23 24 26 27 29 32 35 37
32 32 34 34 29 22 23 26 24 26 31 33 33 34 35 36 36 37 36 36 36 34 31 29 27 25 24 23 22 21 19 19 20 21 21 21 21 23 26 27 30 34 36 38 39
30 30 35 35 37 35 24 28 21 23 30 33 33 34 35 35 35 35 35 34 31 30 27 25 23 21 20 20 19 18 19 19 20 21 21 23 26 22 26 30 34 36 38 39 39
25 27 30 29 28 31 28 22 18 30 35 34 36 34 33 33 32 32 32 30 28 25 23 21 19 18 18 17 17 18 19 20 22 23 24 24 29 30 32 33 34 37 38 38 36
22 22 25 26 22 20 20 21 21 34 33 35 37 33 33 31 29 29 28 27 24 22 20 19 17 17 17 17 18 19 21 23 24 26 28 29 32 34 34 35 37 38 36 34 32
17 18 19 22 20 18 17 16 16 27 36 36 29 30 29 30 28 27 25 23 21 19 18 17 17 17 17 18 19 21 23 28 29 31 32 34 35 32 35 38 38 36 34 32 30
14 14 17 17 16 14 12 12 19 17 27 31 26 25 25 25 26 25 25 23 21 20 19 18 18 19 21 23 25 27 28 29 33 34 34 33 35 35 36 35 33 31 30 30 28
14 13 13 13 14 15 15 15 11 15 17 16 17 18 19 20 20 22 22 22 21 21 22 22 23 23 24 25 26 27 29 30 33 34 36 36 35 34 34 31 30 28 28 26 26
13 13 12 13 13 13 14 14 13 11 9 11 12 14 13 14 15 15 17 17 18 19 20 20 21 22 24 26 27 29 29 30 32 36 38 36 34 30 28 26 26 27 27 27 29
10 10 12 12 12 12 11 10 11 12 12 10 9 8 8 8 8 9 11 14 15 16 18 20 22 22 25 25 27 28 31 33 35 35 35 34 29 25 27 28 29 29 30 32 34
8 9 10 11 11 10 10 9 8 8 9 8 9 9 9 9 9 10 11 12 14 15 17 19 21 23 26 28 30 32 31 32 33 31 31 29 23 29 30 32 34 35 35 35 36
15 7 6 8 9 9 8 8 8 8 7 7 6 7 8 9 10 12 14 15 17 19 21 23 24 25 27 28 28 28 29 29 30 30 27 29 28 31 36 37 39 40 41 40 41
15 12 9 6 3 3 5 7 7 6 6 6 6 7 8 9 10 12 14 16 18 19 20 21 21 22 22 22 22 22 25 28 31 32 34 33 34 36 43 44 45 46 48 47 47
12 10 11 9 7 6 2 1 3 3 4 5 5 4 5 6 7 9 10 12 13 15 17 18 19 22 24 26 27 28 31 34 36 39 42 37 45 41 49 48 49 49 49 47 46
8 11 9 7 7 6 5 4 4 1 3 6 8 10 11 12 14 16 18 19 20 22 24 26 27 29 31 35 36 37 37 41 43 43 45 44 42 44 42 42 42 44 44 45 45
8 8 7 10 11 8 5 4 5 3 4 3 4 4 5 7 9 11 12 15 18 21 23 24 26 28 29 30 34 33 32 34 36 38 40 41 42 43 44 46 46 45 47 47 48
Wind_Direction
20 354 326 296 280 283 283 247 234 227 219 220 222 225 226 221 210 212 210 210 210 211 212 214 216 218 221 223 226 228 231 236 243 247 239 231 227 231 234 240 245 250 258 270 281
16 7 307 299 282 274 219 232 187 189 205 211 209 221 221 218 206 209 207 208 209 210 211 214 215 218 220 222 224 228 233 238 244 238 234 226 226 228 237 244 249 256 265 276 284
8 359 343 311 276 245 236 200 176 192 187 182 177 207 211 216 204 204 205 205 206 208 210 213 214 213 218 219 222 226 232 236 235 234 228 223 226 232 237 244 253 264 272 277 283
358 349 1 359 108 136 172 176 178 177 170 161 166 177 187 199 201 200 202 202 204 206 207 211 213 212 215 216 220 228 230 230 232 231 224 222 228 234 239 247 256 264 270 277 285
0 356 14 65 119 86 137 165 174 162 152 156 193 174 178 184 190 196 198 200 201 204 205 207 211 211 213 213 218 225 221 226 230 229 223 224 228 237 244 250 257 264 271 280 288
27 8 36 118 64 117 140 158 159 146 153 153 157 174 168 170 184 189 193 196 197 201 203 204 207 209 211 210 215 212 216 224 227 228 226 227 231 238 245 252 261 270 278 285 289
31 40 55 64 72 108 129 154 164 138 141 150 148 157 160 167 177 180 186 190 192 196 199 202 205 208 208 206 208 211 217 222 223 226 229 233 239 244 252 259 266 274 280 285 289
39 47 53 73 97 106 120 154 174 156 142 132 146 152 162 166 169 169 177 182 183 189 195 199 202 205 203 204 208 212 216 221 224 227 233 240 244 252 259 265 271 278 283 285 289
42 51 45 66 107 130 125 140 151 152 155 161 154 152 158 160 162 166 170 173 178 184 191 196 199 199 200 204 206 211 216 219 225 231 236 243 248 254 259 268 275 279 283 288 292
45 51 52 60 68 113 139 146 149 135 141 165 151 151 153 156 160 162 164 170 175 182 188 193 195 197 199 204 209 210 214 219 226 233 239 245 252 258 264 268 275 281 286 288 291
47 55 58 64 68 86 116 138 151 157 131 150 156 146 153 155 159 163 164 169 174 182 186 189 194 197 199 206 209 211 213 220 228 234 243 249 254 266 272 273 276 280 281 284 286
59 51 55 74 72 85 94 104 127 137 138 143 144 148 153 157 159 162 162 166 173 180 182 187 192 196 201 209 213 216 219 225 234 241 248 255 260 268 276 282 285 286 285 286 288
54 54 58 56 62 87 105 110 115 126 134 138 140 150 155 151 154 154 159 167 172 174 178 183 192 197 204 213 219 225 229 235 243 250 256 261 263 268 276 280 282 283 285 287 291
55 57 65 62 71 85 103 102 120 133 133 138 145 147 142 147 149 152 157 160 166 170 175 183 191 200 209 218 225 232 238 244 250 256 261 268 275 273 272 276 280 283 286 290 292
60 66 67 63 62 64 69 75 103 133 133 136 132 135 140 142 146 150 149 153 159 166 173 184 192 201 211 221 229 236 244 249 254 260 267 271 279 284 282 283 284 286 290 292 291
63 69 70 67 64 63 69 66 108 123 128 125 132 133 138 142 144 144 145 152 158 162 172 183 195 205 216 225 233 241 248 255 260 264 269 274 278 284 288 289 290 292 292 290 287
57 69 70 70 67 70 72 71 83 125 127 124 136 136 137 142 141 145 148 151 158 166 175 188 201 213 222 231 240 246 251 257 261 266 273 279 282 287 290 290 290 291 289 287 286
68 72 80 78 77 72 66 72 115 113 120 129 140 147 149 150 153 156 159 162 167 177 186 195 208 216 227 234 243 250 258 266 272 275 278 280 285 290 290 290 289 286 283 283 283
75 76 82 84 82 90 92 92 98 120 132 140 147 153 154 161 164 166 170 176 184 194 205 212 223 232 240 249 256 262 268 272 277 280 283 287 290 289 290 289 286 285 284 283 283
70 85 93 93 93 98 108 112 110 111 119 137 150 160 168 170 178 185 194 200 209 218 225 233 243 248 256 260 265 269 273 276 279 283 286 288 290 293 291 289 291 289 290 292 293
58 71 92 104 110 113 114 117 125 130 135 141 148 165 178 191 202 211 219 226 234 242 248 254 257 260 265 269 273 277 280 281 282 284 288 292 297 294 292 296 292 290 290 290 290
46 61 70 85 104 120 130 134 139 143 146 151 159 171 184 201 215 222 229 241 248 253 258 264 267 270 271 274 275 276 279 281 283 285 285 289 295 293 294 290 290 291 290 290 291
40 44 74 81 86 94 111 129 142 157 167 176 190 205 215 224 234 241 246 252 256 259 263 266 267 270 272 274 276 278 278 278 278 280 282 282 288 287 285 283 284 287 289 290 288
44 47 52 57 62 105 120 119 118 122 138 159 181 205 220 232 240 246 250 253 256 259 262 264 267 269 271 273 273 274 277 278 280 283 280 283 283 286 283 283 286 286 287 287 287
28 49 55 57 58 55 66 207 200 197 190 184 194 207 217 227 238 248 255 260 264 268 271 272 272 273 273 274 274 274 274 276 278 279 280 283 281 280 280 284 285 286 287 287 286
349 346 2 27 37 52 59 62 81 120 228 242 256 254 257 263 267 267 270 269 271 271 272 273 274 274 274 277 278 276 279 280 279 280 282 281 283 280 283 282 281 283 286 289 290
317 317 316 323 324 322 327 327 324 321 313 301 289 280 275 274 269 273 276 275 276 276 279 283 284 283 284 285 283 284 283 282 284 284 286 286 285 286 286 285 285 284 285 285 284